Location: Cucq
(50.4773°N, 1.6202°E)
Time: 10:02:38
(UTC+00:00)

COSMOS 2428 - Pass Details

Date: 07 August 2020
Orbit: 844 x 859 km, 70.9° (Epoch: 20 September)

Event Time Altitude Azimuth Distance (km) Brightness Sun altitude
Rises 02:04:28 0° 317° (NW) 3,435 6.1 -17.8°
Reaches altitude 10° 02:08:03 10° 295° (WNW) 2,495 5.1 -17.5°
Maximum altitude 02:11:00 15° 263° (W) 2,186 4.5 -17.2°
Enters shadow 02:11:10 15° 261° (W) 2,186 4.5 -17.2°
